Weather History for Lancaster, SC

Change the Weather History Date:

Wednesday, February 13, 2013

  Actual Average (KUZA) Record (KUZA)
Temperature  
Mean Temperature 46 °F -  
Max Temperature 50 °F 53 °F 75 °F (1951)
Min Temperature 42 °F 33 °F 12 °F (1955)
Degree Days  
Heating Degree Days 19    
Moisture  
Dew Point 46 °F    
Average Humidity 100    
Maximum Humidity 100    
Minimum Humidity 87    
Precipitation  
Precipitation 0.03 in - - ()
Sea Level Pressure  
Sea Level Pressure 29.79 in    
Wind  
Wind Speed 2 mph (WSW)    
Max Wind Speed 15 mph    
Max Gust Speed 22 mph    
Visibility 7 miles    
Events Rain    
Averages and records for this station are not official NWS values.
T = Trace of Precipitation, MM = Missing Value Source: NWS Daily Summary

Daily Weather History Graph

Daily Weather History Graph

Search for Another Location

Airport:

Trip Planner

Search our weather history database for the weather conditions in past years. The results will help you decide how hot, cold, wet, or windy it might be!

Date:

Astronomy

Feb. 13, 2013 Rise Set
Actual Time 7:10 AM EST 6:04 PM EST
Civil Twilight 6:44 AM EST 6:30 PM EST
Nautical Twilight 6:15 AM EST 7:00 PM EST
Astronomical Twilight 5:46 AM EST 7:29 PM EST
Moon 8:50 AM EST (2/13) 9:53 PM EST (2/13)
Length of Visible Light 11h 45m
Length of Day
10h 54m
Waxing Crescent, 13% of the Moon is Illuminated
Feb 13
Waxing Crescent
Feb 17
First Quarter
Feb 25
Full
Mar 4
Last Quarter
Mar 11
New

Hourly Weather History & Observations

Time (EST) Temp. Windchill Dew Point Humidity Pressure Visibility Wind Dir Wind Speed Gust Speed Precip Events Conditions
12:15 AM 46.4 °F 44.3 °F 46.4 °F 100% 29.92 in 10.0 mi NNE 4.6 mph - N/A Rain Light Rain
12:35 AM 46.4 °F 45.2 °F 46.4 °F 100% 29.95 in 10.0 mi North 3.5 mph - N/A   Mostly Cloudy
12:55 AM 46.4 °F - 46.4 °F 100% 29.90 in 7.0 mi Calm Calm - 0.01 in Rain Light Rain
1:15 AM 46.4 °F - 46.4 °F 100% 29.89 in 10.0 mi Calm Calm - N/A Rain Light Rain
1:35 AM 46.4 °F - 46.4 °F 100% 29.89 in 10.0 mi Calm Calm - N/A   Overcast
1:55 AM 46.4 °F - 46.4 °F 100% 29.87 in 8.0 mi Calm Calm - N/A   Overcast
2:15 AM 46.4 °F - 46.4 °F 100% 29.87 in 10.0 mi Calm Calm - N/A   Overcast
2:35 AM 46.4 °F - 46.4 °F 100% 29.87 in 10.0 mi Calm Calm - N/A   Overcast
2:55 AM 46.4 °F 45.2 °F 46.4 °F 100% 29.86 in 5.0 mi NNE 3.5 mph - N/A   Overcast
3:15 AM 46.4 °F - 46.4 °F 100% 29.85 in 7.0 mi Calm Calm - N/A   Overcast
3:35 AM 44.6 °F - 44.6 °F 100% 29.85 in 8.0 mi Calm Calm - N/A   Overcast
3:55 AM 44.6 °F - 44.6 °F 100% 29.85 in 3.0 mi Calm Calm - N/A Rain Light Rain
4:15 AM 44.6 °F - 44.6 °F 100% 29.84 in 2.5 mi Calm Calm - 0.01 in Rain Light Rain
4:35 AM 44.6 °F 43.1 °F 44.6 °F 100% 29.85 in 3.0 mi NNE 3.5 mph - 0.01 in Rain Light Rain
4:55 AM 44.6 °F - 44.6 °F 100% 29.83 in 3.0 mi Calm Calm - 0.01 in Rain Light Rain
5:15 AM 44.6 °F - 44.6 °F 100% 29.82 in 10.0 mi Calm Calm - N/A Rain Light Rain
5:35 AM 44.6 °F - 44.6 °F 100% 29.80 in 10.0 mi Calm Calm - N/A Rain Light Rain
5:55 AM 44.6 °F - 44.6 °F 100% 29.81 in 10.0 mi Calm Calm - N/A   Overcast
6:15 AM 44.6 °F - 44.6 °F 100% 29.80 in 10.0 mi Calm Calm - N/A   Overcast
6:35 AM 44.6 °F - 44.6 °F 100% 29.80 in 10.0 mi Calm Calm - N/A   Overcast
6:55 AM 44.6 °F - 44.6 °F 100% 29.81 in 10.0 mi Calm Calm - N/A   Overcast
7:15 AM 44.6 °F - 44.6 °F 100% 29.80 in 10.0 mi Calm Calm - N/A   Overcast
7:35 AM 44.6 °F - 44.6 °F 100% 29.81 in 10.0 mi Calm Calm - N/A   Overcast
7:55 AM 44.6 °F - 44.6 °F 100% 29.80 in 1.5 mi Calm Calm - N/A   Overcast
8:15 AM 44.6 °F - 44.6 °F 100% 29.81 in 3.0 mi Calm Calm - N/A   Overcast
8:35 AM 44.6 °F - 44.6 °F 100% 29.78 in 2.5 mi Calm Calm - N/A   Overcast
8:55 AM 44.6 °F - 44.6 °F 100% 29.81 in 3.0 mi Calm Calm - N/A   Overcast
9:15 AM 44.6 °F - 44.6 °F 100% 29.80 in 4.0 mi Calm Calm - N/A   Overcast
9:35 AM 44.6 °F - 44.6 °F 100% 29.79 in 1.0 mi Calm Calm - N/A   Overcast
9:55 AM 46.4 °F - 46.4 °F 100% 29.79 in 1.0 mi Calm Calm - N/A   Overcast
10:15 AM 46.4 °F - 46.4 °F 100% 29.77 in 1.5 mi Calm Calm - N/A   Overcast
10:35 AM 46.4 °F - 46.4 °F 100% 29.80 in 1.2 mi Calm Calm - N/A   Overcast
11:15 AM 46.4 °F - 46.4 °F 100% 29.76 in 1.8 mi Calm Calm - N/A   Overcast
11:35 AM 46.4 °F - 46.4 °F 100% 29.75 in 2.0 mi Calm Calm - N/A   Overcast
11:55 AM 46.4 °F - 46.4 °F 100% 29.78 in 1.2 mi Calm Calm - N/A   Overcast
12:15 PM 46.4 °F - 46.4 °F 100% 29.72 in 1.2 mi Calm Calm - N/A   Overcast
12:35 PM 46.4 °F 45.2 °F 46.4 °F 100% 29.68 in 1.2 mi SE 3.5 mph - N/A   Overcast
12:55 PM 46.4 °F - 46.4 °F 100% 29.71 in 1.5 mi Calm Calm - N/A   Overcast
1:15 PM 46.4 °F 45.2 °F 46.4 °F 100% 29.73 in 1.2 mi SW 3.5 mph - N/A   Overcast
1:35 PM 46.4 °F 45.2 °F 46.4 °F 100% 29.69 in 1.0 mi WSW 3.5 mph - N/A   Overcast
1:55 PM 46.4 °F - 46.4 °F 100% 29.69 in 1.2 mi Calm Calm - N/A   Overcast
2:15 PM 48.2 °F - 48.2 °F 100% 29.70 in 2.0 mi WSW 8.1 mph - N/A   Overcast
2:35 PM 48.2 °F - 48.2 °F 100% 29.69 in 4.0 mi SW 5.8 mph - N/A   Overcast
2:55 PM 48.2 °F - 48.2 °F 100% 29.71 in 8.0 mi WSW 8.1 mph - N/A   Overcast
3:15 PM 48.2 °F - 48.2 °F 100% 29.72 in 10.0 mi WSW 15.0 mph 21.9 mph 0.01 in   Overcast
3:35 PM 48.2 °F - 48.2 °F 100% 29.70 in 10.0 mi WSW 9.2 mph - 0.01 in   Overcast
3:55 PM 50.0 °F - 50.0 °F 100% 29.71 in 10.0 mi WSW 9.2 mph - 0.01 in   Overcast
4:15 PM 50.0 °F - 50.0 °F 100% 29.71 in 10.0 mi SW 12.7 mph 17.3 mph N/A   Overcast
4:35 PM 50.0 °F - 50.0 °F 100% 29.71 in 10.0 mi WSW 10.4 mph 17.3 mph N/A   Mostly Cloudy
4:55 PM 50.0 °F - 50.0 °F 100% 29.71 in 10.0 mi SW 10.4 mph 17.3 mph N/A   Mostly Cloudy
5:15 PM 50.0 °F - 48.2 °F 94% 29.70 in 10.0 mi SW 9.2 mph 18.4 mph N/A   Partly Cloudy
5:35 PM 48.2 °F - 48.2 °F 100% 29.71 in 10.0 mi SW 5.8 mph - N/A   Clear
5:55 PM 48.2 °F - 48.2 °F 100% 29.73 in 10.0 mi SW 5.8 mph - N/A   Clear
6:15 PM 48.2 °F - 48.2 °F 100% 29.74 in 10.0 mi WSW 6.9 mph - N/A   Clear
6:35 PM 48.2 °F - 48.2 °F 100% 29.75 in 10.0 mi WSW 6.9 mph - N/A   Clear
6:55 PM 48.2 °F - 48.2 °F 100% 29.73 in 10.0 mi SW 6.9 mph - N/A   Clear
7:15 PM 48.2 °F - 48.2 °F 100% 29.75 in 10.0 mi WSW 5.8 mph - N/A   Clear
7:35 PM 48.2 °F - 48.2 °F 100% 29.76 in 10.0 mi WSW 5.8 mph - N/A   Clear
8:15 PM 48.2 °F - 48.2 °F 100% 29.78 in 10.0 mi West 4.6 mph - N/A   Clear
8:35 PM 48.2 °F - 48.2 °F 100% 29.79 in 10.0 mi Calm Calm - N/A   Clear
8:55 PM 46.4 °F - 46.4 °F 100% 29.80 in 10.0 mi Calm Calm - N/A   Clear
9:15 PM 46.4 °F - 46.4 °F 100% 29.80 in 10.0 mi Calm Calm - N/A   Clear
9:35 PM 46.4 °F 45.2 °F 46.4 °F 100% 29.81 in 10.0 mi West 3.5 mph - N/A   Partly Cloudy
9:55 PM 46.4 °F 43.5 °F 46.4 °F 100% 29.83 in 10.0 mi West 5.8 mph - N/A   Scattered Clouds
10:15 PM 48.2 °F - 46.4 °F 93% 29.84 in 10.0 mi West 6.9 mph - N/A   Mostly Cloudy
10:35 PM 46.4 °F 43.5 °F 46.4 °F 100% 29.85 in 10.0 mi WNW 5.8 mph - N/A   Scattered Clouds
10:55 PM 46.4 °F 45.2 °F 46.4 °F 100% 29.86 in 10.0 mi NW 3.5 mph - N/A   Clear
11:15 PM 46.4 °F - 44.6 °F 93% 29.86 in 10.0 mi Calm Calm - N/A   Clear
11:35 PM 42.8 °F 41.1 °F 42.8 °F 100% 29.87 in 10.0 mi WNW 3.5 mph - N/A   Clear
11:55 PM 44.6 °F 43.1 °F 41.0 °F 87% 29.88 in 10.0 mi WNW 3.5 mph - N/A   Clear